• In Uzbekistan
  • List of Countries
  • For 7 days
  • Water Temperature
  • Satellite Maps
  • Weather Map
  • Weather Widgets
  • user-avatar
    Login

    Hourly Weather Bishkek

    Today, 24 January, Thursday

    Time Temperature Precipitation Wind Pressure Humidity
    00:00 -25°C° 0 mm 3 mps 477 mmHg 50%
    01:00 -25°C° 0 mm 3 mps 477 mmHg 50%
    02:00 -25°C° 0 mm 3 mps 478 mmHg 50%
    03:00 -25°C° 0 mm 3 mps 478 mmHg 51%
    04:00 -25°C° 0 mm 3 mps 478 mmHg 52%
    05:00 -25°C° 0 mm 3 mps 478 mmHg 54%
    06:00 -25°C° 0 mm 3 mps 478 mmHg 55%
    07:00 -25°C° 0 mm 3 mps 478 mmHg 56%
    08:00 -26°C° 0 mm 3 mps 479 mmHg 57%
    09:00 -23°C° 0 mm 2 mps 480 mmHg 61%
    10:00 -20°C° 0 mm 2 mps 481 mmHg 65%
    11:00 -19°C° 0 mm 2 mps 483 mmHg 69%
    12:00 -19°C° 0 mm 2 mps 483 mmHg 72%
    13:00 -19°C° 0 mm 2 mps 483 mmHg 75%
    14:00 -16°C° 0 mm 1 mps 483 mmHg 78%
    15:00 -18°C° 0.1 mm 1 mps 482 mmHg 81%
    16:00 -19°C° 0.1 mm 1 mps 481 mmHg 83%
    17:00 -20°C° 0.1 mm 1 mps 481 mmHg 85%
    18:00 -23°C° 0.1 mm 2 mps 481 mmHg 82%
    19:00 -24°C° 0.1 mm 2 mps 481 mmHg 78%
    20:00 -24°C° 0.1 mm 2 mps 481 mmHg 75%
    21:00 -25°C° 0.1 mm 3 mps 481 mmHg 74%
    22:00 -25°C° 0.1 mm 3 mps 481 mmHg 72%
    23:00 -25°C° 0.1 mm 3 mps 481 mmHg 71%

    Tomorrow, 25 January, Friday

    Time Temperature Precipitation Wind Pressure Humidity
    00:00 -26°C° 0 mm 3 mps 481 mmHg 71%
    01:00 -26°C° 0 mm 3 mps 481 mmHg 70%
    02:00 -26°C° 0 mm 3 mps 481 mmHg 69%
    03:00 -26°C° 0 mm 3 mps 481 mmHg 69%
    04:00 -26°C° 0 mm 3 mps 481 mmHg 68%
    05:00 -26°C° 0 mm 3 mps 480 mmHg 67%
    06:00 -26°C° 0 mm 3 mps 480 mmHg 66%
    07:00 -26°C° 0 mm 3 mps 481 mmHg 65%
    08:00 -26°C° 0 mm 3 mps 481 mmHg 64%
    09:00 -23°C° 0 mm 2 mps 482 mmHg 64%
    10:00 -20°C° 0 mm 2 mps 483 mmHg 65%
    11:00 -16°C° 0 mm 1 mps 484 mmHg 65%
    12:00 -16°C° 0 mm 1 mps 484 mmHg 67%
    13:00 -16°C° 0 mm 1 mps 483 mmHg 69%
    14:00 -15°C° 0 mm 1 mps 483 mmHg 71%
    15:00 -19°C° 0 mm 2 mps 482 mmHg 72%
    16:00 -21°C° 0 mm 2 mps 481 mmHg 73%
    17:00 -24°C° 0 mm 3 mps 479 mmHg 73%
    18:00 -25°C° 0 mm 3 mps 479 mmHg 66%
    19:00 -25°C° 0 mm 3 mps 479 mmHg 59%
    20:00 -25°C° 0 mm 3 mps 479 mmHg 52%
    21:00 -26°C° 0 mm 4 mps 479 mmHg 48%
    22:00 -26°C° 0 mm 4 mps 479 mmHg 44%
    23:00 -26°C° 0 mm 4 mps 479 mmHg 40%

    Day after tomorrow, 26 January, Saturday

    Time Temperature Precipitation Wind Pressure Humidity
    00:00 -26°C° 0 mm 4 mps 479 mmHg 38%
    01:00 -26°C° 0 mm 4 mps 479 mmHg 35%
    02:00 -26°C° 0 mm 4 mps 479 mmHg 33%
    03:00 -26°C° 0 mm 4 mps 479 mmHg 32%
    04:00 -26°C° 0 mm 4 mps 478 mmHg 31%
    05:00 -26°C° 0 mm 4 mps 478 mmHg 31%
    06:00 -26°C° 0 mm 4 mps 478 mmHg 32%
    07:00 -26°C° 0 mm 4 mps 479 mmHg 33%
    08:00 -26°C° 0 mm 4 mps 479 mmHg 34%
    09:00 -24°C° 0 mm 4 mps 480 mmHg 40%
    10:00 -21°C° 0 mm 3 mps 481 mmHg 46%
    11:00 -18°C° 0 mm 2 mps 482 mmHg 52%
    12:00 -17°C° 0 mm 2 mps 482 mmHg 55%
    13:00 -17°C° 0 mm 2 mps 482 mmHg 57%
    14:00 -17°C° 0 mm 2 mps 481 mmHg 60%
    15:00 -19°C° 0 mm 2 mps 480 mmHg 60%
    16:00 -22°C° 0 mm 3 mps 479 mmHg 60%
    17:00 -24°C° 0 mm 3 mps 478 mmHg 60%
    18:00 -25°C° 0 mm 4 mps 479 mmHg 56%
    19:00 -25°C° 0 mm 4 mps 479 mmHg 52%
    20:00 -25°C° 0 mm 4 mps 479 mmHg 47%
    21:00 -25°C° 0 mm 4 mps 479 mmHg 46%
    22:00 -26°C° 0 mm 4 mps 479 mmHg 45%
    23:00 -26°C° 0 mm 4 mps 479 mmHg 44%

    27 January, Sunday

    Time Temperature Precipitation Wind Pressure Humidity
    00:00 -26°C° 0 mm 4 mps 479 mmHg 43%
    01:00 -26°C° 0 mm 4 mps 479 mmHg 43%
    02:00 -26°C° 0 mm 4 mps 479 mmHg 42%
    03:00 -27°C° 0 mm 4 mps 479 mmHg 42%
    04:00 -27°C° 0 mm 4 mps 479 mmHg 41%
    05:00 -27°C° 0 mm 4 mps 479 mmHg 40%
    06:00 -27°C° 0 mm 4 mps 479 mmHg 40%
    07:00 -27°C° 0 mm 4 mps 479 mmHg 40%
    08:00 -27°C° 0 mm 4 mps 479 mmHg 39%
    09:00 -24°C° 0 mm 3 mps 481 mmHg 43%
    10:00 -22°C° 0 mm 3 mps 482 mmHg 47%
    11:00 -18°C° 0 mm 2 mps 483 mmHg 51%
    12:00 -18°C° 0 mm 2 mps 483 mmHg 53%
    13:00 -17°C° 0 mm 2 mps 483 mmHg 54%
    14:00 -17°C° 0 mm 2 mps 483 mmHg 56%
    15:00 -19°C° 0 mm 2 mps 482 mmHg 57%
    16:00 -23°C° 0 mm 3 mps 480 mmHg 58%
    17:00 -25°C° 0 mm 3 mps 479 mmHg 59%
    18:00 -26°C° 0 mm 4 mps 479 mmHg 53%
    19:00 -26°C° 0 mm 4 mps 480 mmHg 48%
    20:00 -26°C° 0 mm 4 mps 480 mmHg 42%
    21:00 -26°C° 0 mm 4 mps 480 mmHg 41%
    22:00 -25°C° 0 mm 4 mps 480 mmHg 41%
    23:00 -25°C° 0 mm 4 mps 480 mmHg 40%

    28 January, Monday

    Time Temperature Precipitation Wind Pressure Humidity
    00:00 -25°C° 0 mm 4 mps 480 mmHg 40%
    01:00 -25°C° 0 mm 4 mps 480 mmHg 40%
    02:00 -25°C° 0 mm 4 mps 480 mmHg 40%
    03:00 -25°C° 0 mm 4 mps 480 mmHg 44%
    04:00 -25°C° 0 mm 4 mps 480 mmHg 47%
    05:00 -25°C° 0 mm 4 mps 480 mmHg 51%
    06:00 -25°C° 0 mm 4 mps 480 mmHg 53%
    07:00 -25°C° 0 mm 4 mps 480 mmHg 55%
    08:00 -24°C° 0 mm 4 mps 481 mmHg 57%
    09:00 -23°C° 0 mm 4 mps 481 mmHg 59%
    10:00 -22°C° 0 mm 4 mps 482 mmHg 62%
    11:00 -19°C° 0 mm 4 mps 483 mmHg 64%
    12:00 -19°C° 0.1 mm 4 mps 483 mmHg 66%
    13:00 -19°C° 0.1 mm 4 mps 482 mmHg 68%
    14:00 -18°C° 0.1 mm 3 mps 482 mmHg 70%
    15:00 -19°C° 0.1 mm 4 mps 482 mmHg 72%
    16:00 -20°C° 0.1 mm 4 mps 481 mmHg 74%
    17:00 -22°C° 0.1 mm 4 mps 481 mmHg 76%
    18:00 -22°C° 0.2 mm 4 mps 481 mmHg 76%
    19:00 -22°C° 0.2 mm 5 mps 481 mmHg 77%
    20:00 -22°C° 0.2 mm 5 mps 481 mmHg 77%
    21:00 -22°C° 0.2 mm 5 mps 481 mmHg 77%
    22:00 -22°C° 0.2 mm 5 mps 481 mmHg 77%
    23:00 -21°C° 0.2 mm 5 mps 481 mmHg 76%

    29 January, Tuesday

    Time Temperature Precipitation Wind Pressure Humidity
    00:00 -21°C° 0.1 mm 5 mps 481 mmHg 76%
    01:00 -21°C° 0.1 mm 5 mps 481 mmHg 76%
    02:00 -21°C° 0.1 mm 5 mps 481 mmHg 76%
    03:00 -20°C° 0.2 mm 4 mps 480 mmHg 77%
    04:00 -20°C° 0.2 mm 4 mps 480 mmHg 78%
    05:00 -20°C° 0.2 mm 4 mps 480 mmHg 79%
    06:00 -20°C° 0.3 mm 4 mps 480 mmHg 78%
    07:00 -19°C° 0.3 mm 4 mps 480 mmHg 78%
    08:00 -20°C° 0.3 mm 5 mps 480 mmHg 78%
    09:00 -19°C° 0.5 mm 4 mps 480 mmHg 79%
    10:00 -18°C° 0.5 mm 4 mps 480 mmHg 80%
    11:00 -17°C° 0.5 mm 4 mps 481 mmHg 80%
    12:00 -17°C° 0.7 mm 4 mps 480 mmHg 81%
    13:00 -15°C° 0.7 mm 3 mps 480 mmHg 81%
    14:00 -15°C° 0.7 mm 3 mps 480 mmHg 82%
    15:00 -15°C° 0.6 mm 3 mps 480 mmHg 82%
    16:00 -15°C° 0.6 mm 3 mps 480 mmHg 82%
    17:00 -16°C° 0.6 mm 3 mps 480 mmHg 83%
    18:00 -16°C° 0.4 mm 3 mps 480 mmHg 82%
    19:00 -16°C° 0.4 mm 3 mps 480 mmHg 81%
    20:00 -16°C° 0.4 mm 3 mps 480 mmHg 81%
    21:00 -16°C° 0.2 mm 3 mps 479 mmHg 80%
    22:00 -15°C° 0.2 mm 3 mps 479 mmHg 79%
    23:00 -16°C° 0.2 mm 4 mps 479 mmHg 78%
    Show more